Vorticity
10 9 9 10 13 12 10 11 15 18 16 12 14 13 6 5 9 8 9 15 16 12 10 10 11 13 13 11 9 8 10 11 12 14 13 13 10 8 13 18 17 10
10 10 12 12 13 13 11 12 17 20 13 3 5 10 9 10 11 10 12 16 15 11 12 14 8 8 14 14 10 7 7 9 13 14 9 6 9 11 16 20 18 15
11 11 12 12 15 14 10 10 14 19 20 13 7 7 11 14 13 14 15 14 15 13 12 12 9 10 13 13 12 6 5 10 14 17 15 12 15 16 17 21 20 17
14 14 13 13 16 18 13 8 9 14 19 20 18 16 17 15 13 15 13 9 13 15 13 12 10 10 8 8 9 6 8 12 10 13 15 14 16 16 17 23 23 21
13 14 16 16 16 20 19 12 11 16 16 16 16 15 14 14 14 16 15 9 6 8 14 14 10 9 9 10 9 6 9 12 9 11 13 15 19 16 13 20 25 25
14 13 14 16 18 21 21 16 14 16 16 15 14 13 14 14 13 13 14 14 11 9 13 15 13 12 11 11 10 8 10 10 10 18 22 22 23 16 10 16 25 25
13 12 14 16 19 19 18 18 18 16 12 12 13 14 15 15 15 16 17 16 13 12 17 20 17 12 11 15 15 11 11 10 6 11 20 26 22 12 8 15 21 20
12 13 15 17 18 17 16 17 19 17 12 13 15 13 14 17 17 16 16 13 8 6 15 22 18 12 15 22 22 15 13 17 11 1 5 19 21 9 5 13 18 17
13 15 16 16 15 14 14 15 17 18 17 20 20 14 12 17 16 14 12 14 15 14 17 22 17 15 17 16 16 17 16 18 16 6 1 13 24 17 8 12 17 14
15 15 14 13 13 12 12 15 18 19 21 25 23 15 14 17 17 16 13 12 20 21 15 16 16 16 18 14 9 13 16 13 10 10 11 15 26 26 13 8 13 13
15 14 12 11 12 11 13 20 22 20 22 25 21 15 18 26 24 18 15 13 17 20 14 14 19 17 14 13 11 9 10 8 4 7 13 18 27 29 18 8 7 8
13 13 13 13 13 13 17 23 23 22 22 20 17 10 10 29 33 15 11 15 14 18 18 14 18 19 13 12 14 11 8 6 6 11 15 18 25 26 19 12 4 2
13 14 16 15 16 16 19 19 18 22 21 15 21 14 -1 17 37 20 10 15 14 17 19 11 11 17 16 14 13 11 11 10 12 17 16 15 23 23 17 14 8 6
13 15 16 16 17 18 19 15 13 22 22 14 24 25 3 8 33 30 17 17 18 19 16 10 9 9 9 14 16 13 13 12 13 20 17 15 22 22 17 18 16 12
13 15 17 17 17 17 19 16 15 22 20 10 14 18 5 5 27 34 23 18 21 20 16 10 6 3 4 10 14 13 14 16 20 27 24 18 21 24 20 20 20 14
12 14 18 18 13 12 16 19 21 20 14 8 9 11 8 11 24 27 17 13 17 19 20 15 9 11 12 13 16 16 15 18 20 21 22 20 22 26 25 23 20 14
13 15 17 16 10 7 11 17 21 18 12 13 13 12 15 19 21 19 12 9 12 13 15 16 16 15 7 5 19 24 16 15 13 8 12 18 20 24 29 30 25 17
13 16 16 14 10 10 10 13 19 18 12 15 18 14 16 22 21 15 10 8 11 12 12 14 17 16 5 5 24 29 15 11 12 8 9 13 14 18 26 31 31 25
11 12 14 14 12 12 10 10 20 21 5 2 13 13 11 20 23 15 9 7 11 14 12 11 15 19 17 15 22 26 17 12 13 13 16 18 14 14 19 22 26 25
9 8 11 15 14 13 12 8 18 29 13 -2 5 9 7 15 20 14 10 10 14 16 14 11 10 17 21 14 14 21 18 11 7 0 3 14 16 14 18 23 26 24
9 7 7 12 13 14 15 9 11 25 25 13 11 11 10 16 19 14 10 11 15 17 16 14 10 16 21 14 13 20 17 13 16 9 4 11 17 15 13 13 20 28
8 7 5 7 11 13 16 13 9 14 18 17 17 14 9 13 21 19 12 10 15 17 18 18 16 17 17 8 7 19 21 16 15 17 18 18 16 18 19 13 12 19
7 8 6 5 8 11 14 14 12 12 14 14 17 17 10 10 18 23 18 12 14 18 20 22 22 20 17 9 1 7 21 24 16 20 30 26 13 11 16 18 19 19
6 8 9 6 7 9 13 15 13 12 15 14 12 12 12 13 16 19 19 14 13 18 22 22 23 23 21 16 3 -1 16 24 11 13 32 34 23 17 15 16 20 19
7 8 9 9 8 7 11 15 15 14 13 12 10 8 10 15 17 17 19 17 11 12 18 23 23 21 25 25 13 9 22 17 -9 -12 11 26 31 32 32 33 25 14
10 11 11 10 8 8 10 12 15 17 15 9 8 8 9 12 14 16 18 18 12 6 12 27 28 19 21 27 20 16 24 26 18 7 -1 4 21 21 13 21 25 18
Height
5825 5821 5819 5818 5816 5814 5812 5811 5810 5810 5810 5810 5810 5809 5808 5808 5808 5808 5807 5806 5806 5807 5807 5806 5807 5809 5809 5808 5810 5812 5813 5814 5815 5816 5817 5818 5820 5822 5823 5825 5828 5831
5820 5818 5816 5813 5811 5809 5806 5804 5804 5804 5804 5805 5804 5803 5803 5802 5802 5802 5800 5799 5801 5802 5801 5801 5801 5803 5803 5802 5803 5805 5807 5808 5809 5811 5814 5814 5815 5817 5818 5819 5822 5825
5816 5813 5811 5809 5806 5804 5802 5799 5798 5797 5798 5798 5798 5796 5796 5795 5795 5795 5793 5793 5794 5796 5796 5796 5795 5796 5796 5796 5796 5798 5801 5802 5803 5806 5809 5809 5809 5812 5813 5814 5816 5820
5810 5808 5806 5803 5800 5798 5796 5794 5792 5791 5790 5790 5790 5789 5788 5788 5788 5788 5787 5787 5787 5788 5788 5789 5790 5790 5790 5789 5789 5791 5794 5796 5798 5800 5802 5803 5804 5807 5808 5809 5811 5815
5804 5802 5800 5798 5795 5792 5790 5788 5786 5785 5784 5784 5783 5783 5782 5781 5781 5781 5781 5780 5780 5780 5780 5782 5783 5783 5784 5784 5783 5785 5787 5789 5792 5794 5795 5797 5799 5801 5803 5804 5806 5809
5800 5797 5795 5792 5790 5787 5785 5782 5780 5779 5778 5777 5777 5777 5776 5776 5776 5775 5774 5774 5773 5773 5773 5775 5776 5776 5778 5778 5777 5778 5780 5782 5786 5789 5789 5791 5794 5797 5799 5799 5801 5804
5795 5792 5790 5788 5785 5782 5780 5778 5776 5773 5772 5771 5771 5770 5770 5770 5770 5769 5768 5767 5766 5766 5767 5769 5770 5771 5772 5771 5771 5772 5774 5776 5780 5783 5784 5785 5788 5792 5794 5794 5795 5798
5790 5788 5786 5784 5781 5779 5776 5773 5771 5768 5766 5765 5765 5764 5763 5763 5763 5762 5761 5760 5760 5760 5761 5763 5764 5765 5765 5765 5766 5767 5769 5770 5773 5776 5778 5779 5783 5787 5788 5788 5790 5792
5786 5783 5781 5779 5777 5775 5772 5769 5766 5764 5762 5761 5760 5759 5758 5757 5756 5756 5756 5755 5755 5755 5756 5757 5758 5759 5760 5761 5762 5763 5764 5765 5767 5769 5771 5773 5777 5781 5782 5783 5784 5786
5783 5780 5777 5774 5772 5770 5767 5765 5762 5760 5758 5757 5756 5755 5754 5752 5751 5751 5751 5750 5750 5751 5751 5752 5753 5754 5755 5756 5757 5758 5759 5760 5761 5763 5764 5767 5770 5774 5776 5778 5779 5781
5779 5776 5772 5769 5767 5764 5762 5760 5757 5755 5754 5752 5751 5751 5749 5748 5746 5746 5746 5746 5746 5747 5748 5747 5747 5747 5748 5750 5751 5753 5754 5756 5757 5757 5759 5761 5764 5766 5769 5772 5775 5777
5775 5772 5768 5765 5762 5760 5757 5754 5752 5750 5749 5748 5747 5746 5745 5743 5742 5742 5742 5742 5742 5742 5743 5742 5742 5742 5743 5745 5746 5748 5750 5752 5752 5753 5754 5755 5758 5760 5763 5766 5769 5773
5770 5767 5764 5761 5758 5755 5753 5750 5747 5745 5744 5743 5742 5741 5740 5739 5737 5737 5737 5737 5737 5737 5738 5738 5738 5739 5740 5741 5742 5743 5745 5747 5747 5748 5748 5750 5752 5755 5757 5760 5763 5767
5766 5763 5760 5757 5754 5752 5749 5746 5744 5741 5740 5738 5737 5736 5735 5734 5732 5732 5732 5732 5732 5732 5733 5734 5735 5735 5736 5737 5737 5738 5739 5740 5741 5742 5742 5744 5747 5749 5751 5754 5757 5761
5762 5759 5756 5753 5750 5748 5745 5743 5740 5738 5736 5735 5733 5732 5731 5730 5729 5728 5728 5728 5728 5729 5729 5731 5732 5732 5733 5733 5733 5733 5734 5735 5735 5735 5736 5738 5740 5743 5745 5748 5752 5756
5759 5756 5753 5750 5747 5745 5742 5740 5737 5735 5734 5732 5730 5729 5727 5726 5725 5725 5724 5725 5725 5726 5726 5727 5728 5728 5728 5728 5729 5729 5729 5729 5730 5730 5731 5733 5735 5737 5740 5743 5747 5751
5757 5753 5750 5747 5745 5742 5740 5737 5735 5733 5732 5730 5728 5726 5725 5724 5723 5722 5722 5723 5723 5724 5724 5724 5725 5724 5724 5724 5725 5724 5725 5725 5726 5727 5727 5728 5730 5732 5734 5737 5741 5745
5755 5751 5748 5745 5743 5740 5737 5735 5732 5731 5730 5728 5726 5724 5723 5722 5721 5720 5720 5720 5721 5721 5721 5721 5721 5721 5721 5721 5720 5721 5721 5722 5724 5724 5725 5725 5726 5728 5730 5732 5735 5739
5753 5750 5746 5743 5741 5738 5735 5732 5730 5728 5727 5726 5724 5723 5722 5720 5719 5719 5718 5719 5719 5719 5718 5718 5718 5718 5718 5718 5717 5717 5718 5720 5721 5721 5721 5722 5724 5725 5727 5728 5731 5735
5751 5748 5745 5742 5739 5737 5734 5731 5728 5726 5725 5723 5722 5721 5720 5719 5718 5717 5717 5717 5717 5716 5715 5715 5715 5715 5715 5716 5715 5715 5716 5718 5718 5718 5719 5720 5721 5722 5724 5725 5727 5730
5749 5746 5743 5740 5738 5735 5733 5730 5727 5725 5723 5721 5720 5719 5718 5717 5716 5716 5716 5715 5715 5714 5713 5713 5712 5712 5713 5713 5714 5714 5714 5715 5715 5716 5717 5718 5719 5719 5721 5722 5724 5727
5747 5744 5742 5739 5736 5734 5732 5729 5726 5724 5722 5720 5719 5717 5716 5715 5715 5714 5714 5714 5713 5712 5711 5711 5710 5710 5711 5711 5712 5712 5712 5713 5713 5714 5716 5716 5716 5717 5718 5720 5723 5725
5744 5742 5740 5737 5735 5732 5730 5728 5725 5722 5720 5719 5717 5716 5714 5714 5714 5713 5712 5712 5711 5710 5709 5709 5708 5708 5708 5709 5710 5710 5710 5711 5712 5712 5713 5713 5714 5715 5716 5717 5720 5722
5741 5740 5738 5736 5733 5731 5729 5726 5724 5721 5719 5717 5716 5715 5714 5713 5713 5712 5711 5710 5710 5708 5707 5707 5706 5706 5706 5707 5708 5709 5709 5710 5710 5709 5708 5710 5712 5713 5714 5714 5716 5718
5738 5737 5735 5733 5731 5729 5727 5725 5723 5720 5718 5716 5715 5714 5713 5713 5712 5711 5710 5709 5708 5707 5706 5705 5704 5704 5704 5705 5706 5707 5707 5708 5707 5706 5706 5708 5710 5711 5712 5713 5714 5715
5736 5734 5733 5731 5729 5727 5725 5723 5721 5719 5717 5715 5713 5713 5712 5712 5711 5710 5708 5707 5706 5706 5704 5703 5702 5702 5702 5703 5703 5704 5705 5704 5704 5704 5705 5706 5708 5708 5708 5709 5710 5711